Time,TemperatureF,DewpointF,PressureIn,WindDirection,WindDirectionDegrees,WindSpeedMPH,WindSpeedGustMPH,Humidity,HourlyPrecipIn,Conditions,Clouds,dailyrainin,SoftwareType,DateUTC
2013-09-17 00:05:00,46.6,46.0,30.39,WNW,292,0.0,0.0,96,0.00,,,0.00,weatherlink.com 1.10,2013-09-17 04:05:00,
2013-09-17 00:20:00,46.4,45.0,30.39,WNW,297,0.0,0.0,96,0.00,,,0.00,weatherlink.com 1.10,2013-09-17 04:20:00,
2013-09-17 00:35:00,45.9,45.0,30.39,WNW,296,0.0,0.0,96,0.00,,,0.00,weatherlink.com 1.10,2013-09-17 04:35:00,
2013-09-17 00:50:00,45.3,44.0,30.40,WNW,297,0.0,0.0,96,0.00,,,0.00,weatherlink.com 1.10,2013-09-17 04:50:00,
2013-09-17 01:05:00,44.9,44.0,30.39,WNW,297,0.0,0.0,96,0.00,,,0.00,weatherlink.com 1.10,2013-09-17 05:05:00,
2013-09-17 01:20:00,44.5,44.0,30.40,WNW,296,0.0,0.0,96,0.00,,,0.00,weatherlink.com 1.10,2013-09-17 05:20:00,
2013-09-17 01:35:00,44.3,44.0,30.40,WNW,297,0.0,0.0,97,0.00,,,0.00,weatherlink.com 1.10,2013-09-17 05:35:00,
2013-09-17 01:50:00,43.9,43.0,30.40,WNW,297,0.0,0.0,96,0.00,,,0.00,weatherlink.com 1.10,2013-09-17 05:50:00,
2013-09-17 02:05:00,43.9,43.0,30.40,WNW,297,0.0,0.0,97,0.00,,,0.00,weatherlink.com 1.10,2013-09-17 06:05:00,
2013-09-17 02:20:00,44.0,43.0,30.40,West,279,0.0,0.0,97,0.00,,,0.00,weatherlink.com 1.10,2013-09-17 06:20:00,
2013-09-17 02:36:00,44.3,43.0,30.41,NW,304,0.0,1.0,96,0.00,,,0.00,weatherlink.com 1.10,2013-09-17 06:36:00,
2013-09-17 02:50:00,44.5,43.0,30.41,WNW,283,1.0,1.0,95,0.00,,,0.00,weatherlink.com 1.10,2013-09-17 06:50:00,
2013-09-17 03:05:00,44.4,43.0,30.41,SSE,158,0.0,1.0,95,0.00,,,0.00,weatherlink.com 1.10,2013-09-17 07:05:00,
2013-09-17 03:20:00,44.4,43.0,30.41,SSE,158,0.0,2.0,94,0.00,,,0.00,weatherlink.com 1.10,2013-09-17 07:20:00,
2013-09-17 03:35:00,44.2,43.0,30.41,West,280,0.0,2.0,95,0.00,,,0.00,weatherlink.com 1.10,2013-09-17 07:35:00,
2013-09-17 03:50:00,44.2,43.0,30.41,SE,144,0.0,2.0,95,0.00,,,0.00,weatherlink.com 1.10,2013-09-17 07:50:00,
2013-09-17 04:05:00,44.0,43.0,30.41,SSW,200,0.0,1.0,95,0.00,,,0.00,weatherlink.com 1.10,2013-09-17 08:05:00,
2013-09-17 04:21:00,43.6,42.0,30.41,SW,226,0.0,0.0,95,0.00,,,0.00,weatherlink.com 1.10,2013-09-17 08:21:00,
2013-09-17 04:35:00,43.3,42.0,30.41,SE,129,0.0,1.0,96,0.00,,,0.00,weatherlink.com 1.10,2013-09-17 08:35:00,
2013-09-17 04:51:00,43.3,42.0,30.41,North,4,0.0,1.0,96,0.00,,,0.00,weatherlink.com 1.10,2013-09-17 08:51:00,
2013-09-17 05:05:00,43.2,42.0,30.41,West,281,0.0,1.0,96,0.00,,,0.00,weatherlink.com 1.10,2013-09-17 09:05:00,
2013-09-17 05:21:00,42.9,42.0,30.41,South,179,0.0,0.0,96,0.00,,,0.00,weatherlink.com 1.10,2013-09-17 09:21:00,
2013-09-17 05:35:00,42.9,42.0,30.41,SSW,203,0.0,1.0,96,0.00,,,0.00,weatherlink.com 1.10,2013-09-17 09:35:00,
2013-09-17 05:50:00,42.5,42.0,30.41,WSW,253,0.0,0.0,96,0.00,,,0.00,weatherlink.com 1.10,2013-09-17 09:50:00,
2013-09-17 06:06:00,42.2,41.0,30.41,WSW,252,0.0,0.0,96,0.00,,,0.00,weatherlink.com 1.10,2013-09-17 10:06:00,
2013-09-17 06:20:00,41.8,41.0,30.41,WSW,252,0.0,0.0,96,0.00,,,0.00,weatherlink.com 1.10,2013-09-17 10:20:00,
2013-09-17 06:36:00,41.3,41.0,30.41,WSW,252,0.0,0.0,97,0.00,,,0.00,weatherlink.com 1.10,2013-09-17 10:36:00,
2013-09-17 06:51:00,41.1,40.0,30.41,WSW,252,0.0,0.0,97,0.00,,,0.00,weatherlink.com 1.10,2013-09-17 10:51:00,
2013-09-17 07:06:00,41.2,40.0,30.41,WSW,252,0.0,0.0,97,0.00,,,0.00,weatherlink.com 1.10,2013-09-17 11:06:00,
2013-09-17 07:21:00,41.1,40.0,30.41,WSW,252,0.0,0.0,97,0.00,,,0.00,weatherlink.com 1.10,2013-09-17 11:21:00,
2013-09-17 07:36:00,41.5,41.0,30.41,WSW,252,0.0,1.0,98,0.00,,,0.00,weatherlink.com 1.10,2013-09-17 11:36:00,
2013-09-17 07:51:00,41.9,41.0,30.42,WSW,245,0.0,0.0,98,0.00,,,0.00,weatherlink.com 1.10,2013-09-17 11:51:00,
2013-09-17 08:06:00,42.2,42.0,30.42,WNW,299,0.0,2.0,98,0.00,,,0.00,weatherlink.com 1.10,2013-09-17 12:06:00,
2013-09-17 08:21:00,43.0,43.0,30.42,East,91,0.0,1.0,98,0.00,,,0.00,weatherlink.com 1.10,2013-09-17 12:21:00,
2013-09-17 08:36:00,43.5,43.0,30.42,SE,145,1.0,1.0,98,0.00,,,0.00,weatherlink.com 1.10,2013-09-17 12:36:00,
2013-09-17 08:51:00,44.7,44.0,30.42,East,94,0.0,1.0,98,0.00,,,0.00,weatherlink.com 1.10,2013-09-17 12:51:00,
2013-09-17 09:06:00,46.0,45.0,30.42,SE,144,0.0,1.0,97,0.00,,,0.00,weatherlink.com 1.10,2013-09-17 13:06:00,
2013-09-17 09:21:00,48.2,47.0,30.42,West,264,0.0,1.0,95,0.00,,,0.00,weatherlink.com 1.10,2013-09-17 13:21:00,
2013-09-17 09:36:00,51.5,49.0,30.42,SW,231,0.0,2.0,90,0.00,,,0.00,weatherlink.com 1.10,2013-09-17 13:36:00,
2013-09-17 09:51:00,53.6,49.0,30.42,SSE,148,1.0,3.0,85,0.00,,,0.00,weatherlink.com 1.10,2013-09-17 13:51:00,
2013-09-17 10:06:00,55.2,50.0,30.42,West,260,2.0,5.0,81,0.00,,,0.00,weatherlink.com 1.10,2013-09-17 14:06:00,
2013-09-17 10:21:00,56.1,48.0,30.42,West,260,0.0,5.0,75,0.00,,,0.00,weatherlink.com 1.10,2013-09-17 14:21:00,
2013-09-17 10:36:00,57.5,49.0,30.42,SSE,149,2.0,3.0,74,0.00,,,0.00,weatherlink.com 1.10,2013-09-17 14:36:00,
2013-09-17 10:51:00,58.6,48.0,30.41,East,88,4.0,7.0,68,0.00,,,0.00,weatherlink.com 1.10,2013-09-17 14:51:00,
2013-09-17 11:06:00,59.4,47.0,30.41,ESE,117,2.0,4.0,64,0.00,,,0.00,weatherlink.com 1.10,2013-09-17 15:06:00,
2013-09-17 11:21:00,59.8,48.0,30.41,NE,51,1.0,4.0,66,0.00,,,0.00,weatherlink.com 1.10,2013-09-17 15:21:00,
2013-09-17 11:36:00,60.4,48.0,30.40,NE,37,3.0,7.0,63,0.00,,,0.00,weatherlink.com 1.10,2013-09-17 15:36:00,
2013-09-17 11:51:00,60.9,49.0,30.40,WSW,239,2.0,5.0,64,0.00,,,0.00,weatherlink.com 1.10,2013-09-17 15:51:00,
2013-09-17 12:06:00,61.7,50.0,30.39,East,83,1.0,5.0,65,0.00,,,0.00,weatherlink.com 1.10,2013-09-17 16:06:00,
2013-09-17 12:21:00,62.2,49.0,30.39,ENE,69,0.0,4.0,63,0.00,,,0.00,weatherlink.com 1.10,2013-09-17 16:21:00,
2013-09-17 12:36:00,62.9,51.0,30.38,SW,214,3.0,7.0,66,0.00,,,0.00,weatherlink.com 1.10,2013-09-17 16:36:00,
2013-09-17 12:52:00,63.6,50.0,30.38,NE,37,2.0,4.0,62,0.00,,,0.00,weatherlink.com 1.10,2013-09-17 16:52:00,
2013-09-17 13:07:00,64.0,50.0,30.37,ESE,119,1.0,7.0,61,0.00,,,0.00,weatherlink.com 1.10,2013-09-17 17:07:00,
2013-09-17 13:22:00,65.2,50.0,30.36,WNW,292,1.0,6.0,58,0.00,,,0.00,weatherlink.com 1.10,2013-09-17 17:22:00,
2013-09-17 13:37:00,65.8,50.0,30.36,SSW,205,1.0,6.0,58,0.00,,,0.00,weatherlink.com 1.10,2013-09-17 17:37:00,
2013-09-17 13:52:00,66.3,50.0,30.35,SW,226,1.0,5.0,56,0.00,,,0.00,weatherlink.com 1.10,2013-09-17 17:52:00,
2013-09-17 14:07:00,66.8,50.0,30.34,SSE,167,2.0,5.0,55,0.00,,,0.00,weatherlink.com 1.10,2013-09-17 18:07:00,
2013-09-17 14:22:00,68.0,49.0,30.34,SE,136,0.0,4.0,51,0.00,,,0.00,weatherlink.com 1.10,2013-09-17 18:22:00,
2013-09-17 14:37:00,68.1,51.0,30.33,SW,231,2.0,4.0,55,0.00,,,0.00,weatherlink.com 1.10,2013-09-17 18:37:00,
2013-09-17 14:52:00,68.1,50.0,30.32,NW,308,1.0,4.0,53,0.00,,,0.00,weatherlink.com 1.10,2013-09-17 18:52:00,
2013-09-17 15:07:00,68.3,50.0,30.32,South,170,3.0,5.0,52,0.00,,,0.00,weatherlink.com 1.10,2013-09-17 19:07:00,
2013-09-17 15:22:00,68.7,49.0,30.31,SE,146,2.0,4.0,49,0.00,,,0.00,weatherlink.com 1.10,2013-09-17 19:22:00,
2013-09-17 15:37:00,70.2,50.0,30.30,North,4,4.0,5.0,49,0.00,,,0.00,weatherlink.com 1.10,2013-09-17 19:37:00,
2013-09-17 15:52:00,70.3,51.0,30.29,SSE,160,1.0,4.0,50,0.00,,,0.00,weatherlink.com 1.10,2013-09-17 19:52:00,
2013-09-17 16:07:00,71.3,52.0,30.29,South,181,1.0,3.0,50,0.00,,,0.00,weatherlink.com 1.10,2013-09-17 20:07:00,
2013-09-17 16:22:00,71.1,49.0,30.28,ESE,115,1.0,6.0,45,0.00,,,0.00,weatherlink.com 1.10,2013-09-17 20:22:00,
2013-09-17 16:37:00,70.5,49.0,30.28,South,176,3.0,6.0,47,0.00,,,0.00,weatherlink.com 1.10,2013-09-17 20:37:00,
2013-09-17 16:52:00,69.1,47.0,30.27,SSW,201,2.0,5.0,46,0.00,,,0.00,weatherlink.com 1.10,2013-09-17 20:52:00,
2013-09-17 17:07:00,69.4,49.0,30.27,South,173,4.0,4.0,48,0.00,,,0.00,weatherlink.com 1.10,2013-09-17 21:07:00,
2013-09-17 17:22:00,68.0,47.0,30.26,ENE,63,0.0,6.0,48,0.00,,,0.00,weatherlink.com 1.10,2013-09-17 21:22:00,
2013-09-17 17:37:00,66.5,51.0,30.26,NE,42,0.0,0.0,58,0.00,,,0.00,weatherlink.com 1.10,2013-09-17 21:37:00,
2013-09-17 17:52:00,66.0,52.0,30.26,SW,221,0.0,1.0,62,0.00,,,0.00,weatherlink.com 1.10,2013-09-17 21:52:00,
2013-09-17 18:07:00,64.7,51.0,30.25,SW,221,0.0,1.0,62,0.00,,,0.00,weatherlink.com 1.10,2013-09-17 22:07:00,
2013-09-17 18:22:00,63.2,53.0,30.25,SW,221,0.0,0.0,70,0.00,,,0.00,weatherlink.com 1.10,2013-09-17 22:22:00,
2013-09-17 18:37:00,62.0,54.0,30.25,SW,220,0.0,0.0,74,0.00,,,0.00,weatherlink.com 1.10,2013-09-17 22:37:00,
2013-09-17 18:52:00,61.5,55.0,30.25,SW,219,0.0,0.0,79,0.00,,,0.00,weatherlink.com 1.10,2013-09-17 22:52:00,
2013-09-17 19:07:00,61.1,55.0,30.25,SW,219,0.0,0.0,79,0.00,,,0.00,weatherlink.com 1.10,2013-09-17 23:07:00,
2013-09-17 19:22:00,60.7,55.0,30.25,SW,220,0.0,0.0,80,0.00,,,0.00,weatherlink.com 1.10,2013-09-17 23:22:00,
2013-09-17 19:39:00,59.5,54.0,30.24,SW,219,0.0,0.0,82,0.00,,,0.00,weatherlink.com 1.10,2013-09-17 23:39:00,
2013-09-17 19:53:00,58.2,53.0,30.24,SW,219,0.0,0.0,83,0.00,,,0.00,weatherlink.com 1.10,2013-09-17 23:53:00,
2013-09-17 20:08:00,56.9,53.0,30.24,SW,219,0.0,0.0,87,0.00,,,0.00,weatherlink.com 1.10,2013-09-18 00:08:00,
2013-09-17 20:23:00,55.9,53.0,30.23,SW,219,0.0,0.0,89,0.00,,,0.00,weatherlink.com 1.10,2013-09-18 00:23:00,
2013-09-17 20:38:00,55.1,52.0,30.24,SW,219,0.0,0.0,90,0.00,,,0.00,weatherlink.com 1.10,2013-09-18 00:38:00,
2013-09-17 20:53:00,54.3,52.0,30.24,SW,219,0.0,0.0,91,0.00,,,0.00,weatherlink.com 1.10,2013-09-18 00:53:00,
2013-09-17 21:08:00,53.5,52.0,30.24,SW,219,0.0,0.0,93,0.00,,,0.00,weatherlink.com 1.10,2013-09-18 01:08:00,
2013-09-17 21:23:00,53.0,51.0,30.24,SW,219,0.0,0.0,93,0.00,,,0.00,weatherlink.com 1.10,2013-09-18 01:23:00,
2013-09-17 21:38:00,52.5,51.0,30.24,SW,219,0.0,0.0,94,0.00,,,0.00,weatherlink.com 1.10,2013-09-18 01:38:00,
2013-09-17 21:53:00,52.2,51.0,30.23,SW,219,0.0,0.0,94,0.00,,,0.00,weatherlink.com 1.10,2013-09-18 01:53:00,
2013-09-17 22:08:00,52.1,51.0,30.23,SW,219,0.0,0.0,94,0.00,,,0.00,weatherlink.com 1.10,2013-09-18 02:08:00,
2013-09-17 22:23:00,51.9,51.0,30.23,SW,219,0.0,0.0,95,0.00,,,0.00,weatherlink.com 1.10,2013-09-18 02:23:00,
2013-09-17 22:38:00,52.4,51.0,30.23,SE,125,0.0,0.0,95,0.00,,,0.00,weatherlink.com 1.10,2013-09-18 02:38:00,
2013-09-17 22:53:00,53.3,51.0,30.23,NE,37,0.0,0.0,93,0.00,,,0.00,weatherlink.com 1.10,2013-09-18 02:53:00,
2013-09-17 23:08:00,53.6,51.0,30.23,NNE,20,0.0,0.0,92,0.00,,,0.00,weatherlink.com 1.10,2013-09-18 03:08:00,
2013-09-17 23:23:00,54.1,51.0,30.23,SW,222,0.0,2.0,90,0.00,,,0.00,weatherlink.com 1.10,2013-09-18 03:23:00,
2013-09-17 23:38:00,54.8,51.0,30.23,SSE,158,0.0,3.0,86,0.00,,,0.00,weatherlink.com 1.10,2013-09-18 03:38:00,